This is the latest recevied weather packets stored in our database for station/object DM4XI-13. If no packets are shown the sender has not sent any weather packets the latest 10 day(s).
| Time | Temp. | Humidity | Pressure | Rain* | Wind** | Luminosity | Snow |
|---|---|---|---|---|---|---|---|
| 1777612040 | 5° C | 61% | 1025.9 hPa | 0 mm | 0 m/s | 61 W/m² | - |
| 1777611979 | 5° C | 61% | 1025.9 hPa | 0 mm | 0 m/s | 60 W/m² | - |
| 1777611918 | 5° C | 61% | 1025.8 hPa | 0 mm | 0.45 m/s, 112° | 59 W/m² | - |
| 1777611857 | 5° C | 61% | 1026 hPa | 0 mm | 0.89 m/s, 73° | 58 W/m² | - |
| 1777611796 | 5° C | 61% | 1025.9 hPa | 0 mm | 0.45 m/s, 52° | 57 W/m² | - |
| 1777611735 | 5° C | 61% | 1026 hPa | 0 mm | 0.45 m/s, 71° | 55 W/m² | - |
| 1777611674 | 5° C | 61% | 1025.8 hPa | 0 mm | 0.45 m/s, 97° | 54 W/m² | - |
| 1777611613 | 5° C | 61% | 1025.9 hPa | 0 mm | 0.45 m/s, 119° | 53 W/m² | - |
| 1777611552 | 5° C | 61% | 1025.9 hPa | 0 mm | 0.45 m/s, 96° | 52 W/m² | - |
| 1777611491 | 5° C | 61% | 1025.9 hPa | 0 mm | 0.45 m/s, 117° | 51 W/m² | - |
| 1777611430 | 5° C | 61% | 1025.9 hPa | 0 mm | 0.45 m/s, 114° | 50 W/m² | - |
| 1777611369 | 5° C | 61% | 1026 hPa | 0 mm | 0 m/s | 49 W/m² | - |
| 1777611308 | 5° C | 62% | 1026 hPa | 0 mm | 0 m/s | 48 W/m² | - |
| 1777611247 | 5° C | 62% | 1025.9 hPa | 0 mm | 0.45 m/s, 108° | 47 W/m² | - |
| 1777611186 | 4.44° C | 62% | 1025.8 hPa | 0 mm | 0.45 m/s, 105° | 46 W/m² | - |
| 1777611125 | 4.44° C | 62% | 1025.8 hPa | 0 mm | 0 m/s | 45 W/m² | - |
| 1777611064 | 4.44° C | 62% | 1025.8 hPa | 0 mm | 0 m/s | 43 W/m² | - |
| 1777611003 | 4.44° C | 62% | 1025.7 hPa | 0 mm | 0.45 m/s, 122° | 43 W/m² | - |
| 1777610942 | 4.44° C | 62% | 1025.9 hPa | 0 mm | 0.45 m/s, 130° | 42 W/m² | - |
| 1777610881 | 4.44° C | 62% | 1025.8 hPa | 0 mm | 0 m/s | 41 W/m² | - |
| 1777610820 | 4.44° C | 63% | 1026 hPa | 0 mm | 0.45 m/s, 111° | 40 W/m² | - |
| 1777610759 | 3.89° C | 63% | 1025.9 hPa | 0 mm | 0.45 m/s, 86° | 38 W/m² | - |
| 1777610698 | 3.89° C | 63% | 1025.9 hPa | 0 mm | 0.45 m/s, 51° | 37 W/m² | - |
| 1777610638 | 3.89° C | 64% | 1025.9 hPa | 0 mm | 0 m/s | 37 W/m² | - |
| 1777610576 | 3.89° C | 64% | 1026 hPa | 0 mm | 0 m/s | 36 W/m² | - |
* Rain latest hour (hover to see other rain measurements)
** Current wind speed in m/s (hover to see current wind gust speed)